Cato Island Observation History
Time Wind Speed Temp Pressure Rel. Hum Rain
30/11:00am - 16-19 kts 25.9°c 1014.7 hPa n/a n/a
30/10:30am - 16-19 kts 26.0°c 1014.8 hPa n/a n/a
30/10:00am - 17-19 kts 25.9°c 1014.9 hPa n/a n/a
30/09:30am - 16-19 kts 25.5°c 1014.9 hPa n/a n/a
30/09:00am - 16-18 kts 25.5°c 1015.1 hPa n/a n/a
30/08:30am - 20-23 kts 25.0°c 1015.2 hPa n/a n/a
30/08:00am - 19-23 kts 25.7°c 1015.1 hPa n/a n/a
30/07:30am - 19-21 kts 25.2°c 1015.1 hPa n/a n/a
30/07:00am - 16-19 kts 25.3°c 1014.9 hPa n/a n/a
30/06:30am - 17-21 kts 25.2°c 1014.6 hPa n/a n/a
30/06:00am - 20-22 kts 24.9°c 1014.2 hPa n/a n/a
30/05:30am - 19-22 kts 24.5°c 1014.0 hPa n/a n/a
30/05:00am - 14-17 kts 25.2°c 1014.1 hPa n/a n/a
30/04:30am - 14-16 kts 25.3°c 1014.1 hPa n/a n/a
30/04:00am - 14-16 kts 25.1°c 1013.9 hPa n/a n/a
30/03:30am - 15-17 kts 25.3°c 1013.7 hPa n/a n/a
30/03:00am - 16-18 kts 25.5°c 1013.7 hPa n/a n/a
30/02:30am - 17-20 kts 25.4°c 1013.7 hPa n/a n/a
30/02:00am - 16-19 kts 25.4°c 1013.9 hPa n/a n/a
30/01:30am - 17-20 kts 25.4°c 1014.5 hPa n/a n/a
30/01:00am - 14-16 kts 25.6°c 1014.7 hPa n/a n/a
30/12:30am - 16-18 kts 25.4°c 1015.0 hPa n/a n/a
30/12:00am - 17-21 kts 25.6°c 1015.2 hPa n/a n/a
Time Wind Speed Temp Pressure Rel. Hum Rain
29/11:30pm - 18-20 kts 25.9°c 1015.3 hPa n/a n/a
29/11:00pm - 16-19 kts 25.2°c 1015.4 hPa n/a n/a
29/10:30pm - 20-23 kts 25.3°c 1015.6 hPa n/a n/a
29/10:00pm - 18-21 kts 25.4°c 1015.8 hPa n/a n/a
29/09:30pm - 19-22 kts 25.6°c 1016.0 hPa n/a n/a
29/09:00pm - 18-21 kts 25.6°c 1015.8 hPa n/a n/a
29/08:30pm - 18-20 kts 25.5°c 1015.6 hPa n/a n/a
29/08:00pm - 17-21 kts 25.7°c 1015.5 hPa n/a n/a
29/07:30pm - 17-20 kts 25.6°c 1015.4 hPa n/a n/a
29/07:00pm - 18-20 kts 25.9°c 1015.3 hPa n/a n/a
29/06:30pm - 17-20 kts 25.7°c 1015.0 hPa n/a n/a
29/06:00pm - 15-18 kts 25.8°c 1014.8 hPa n/a n/a
29/05:30pm - 16-18 kts 25.9°c 1014.5 hPa n/a n/a
29/05:00pm - 16-18 kts 26.1°c 1014.2 hPa n/a n/a
29/04:30pm - 16-18 kts 26.0°c 1013.9 hPa n/a n/a
29/04:00pm - 14-17 kts 26.1°c 1013.8 hPa n/a n/a
29/03:30pm - 15-18 kts 26.1°c 1013.6 hPa n/a n/a
29/03:00pm - 15-18 kts 26.0°c 1013.6 hPa n/a n/a
29/02:30pm - 16-18 kts 26.3°c 1013.5 hPa n/a n/a
29/02:00pm - 16-19 kts 26.4°c 1013.7 hPa n/a n/a
29/01:30pm - 17-20 kts 26.3°c 1013.8 hPa n/a n/a
29/01:00pm - 17-19 kts 26.5°c 1014.0 hPa n/a n/a
29/12:30pm - 19-21 kts 26.3°c 1014.4 hPa n/a n/a
29/12:00pm - 18-20 kts 26.4°c 1014.7 hPa n/a n/a
29/11:30am - 20-22 kts 26.3°c 1015.1 hPa n/a n/a
29/11:00am - 21-25 kts 26.6°c 1015.4 hPa n/a n/a
29/10:30am - 21-25 kts 26.0°c 1015.5 hPa n/a n/a
29/10:00am - 19-22 kts 26.3°c 1015.8 hPa n/a n/a
29/09:30am - 19-22 kts 26.0°c 1015.9 hPa n/a n/a
29/09:00am - 20-23 kts 26.1°c 1015.9 hPa n/a n/a
29/08:30am - 19-22 kts 26.0°c 1015.9 hPa n/a n/a
29/08:00am - 20-22 kts 26.0°c 1015.5 hPa n/a n/a
29/07:30am - 17-21 kts 25.7°c 1015.1 hPa n/a n/a
29/07:00am - 20-22 kts 25.2°c 1014.8 hPa n/a n/a
29/06:30am - 21-25 kts 25.5°c 1014.5 hPa n/a n/a
29/06:00am - 20-23 kts 25.4°c 1014.3 hPa n/a n/a
29/05:30am - 21-23 kts 25.5°c 1014.0 hPa n/a n/a
29/05:00am - 21-24 kts 25.5°c 1013.9 hPa n/a n/a
29/04:30am - 20-22 kts 25.5°c 1013.6 hPa n/a n/a
29/04:00am - 19-22 kts 25.3°c 1013.5 hPa n/a n/a
29/03:30am - 19-22 kts 25.5°c 1013.5 hPa n/a n/a
29/03:00am - 18-21 kts 25.5°c 1013.4 hPa n/a n/a
29/02:30am - 19-23 kts 25.5°c 1013.7 hPa n/a n/a
29/02:00am - 18-21 kts 25.8°c 1014.2 hPa n/a n/a
29/01:30am - 19-21 kts 25.7°c 1014.2 hPa n/a n/a
29/01:00am - 19-23 kts 25.6°c 1014.6 hPa n/a n/a
29/12:30am - 19-23 kts 25.6°c 1014.8 hPa n/a n/a
29/12:00am - 19-22 kts 25.5°c 1014.9 hPa n/a n/a
Time Wind Speed Temp Pressure Rel. Hum Rain
28/11:30pm - 21-23 kts 25.7°c 1015.1 hPa n/a n/a
28/11:00pm - 20-23 kts 25.8°c 1015.2 hPa n/a n/a
28/10:30pm - 22-25 kts 25.6°c 1015.4 hPa n/a n/a
28/10:00pm - 22-26 kts 25.6°c 1015.4 hPa n/a n/a
28/09:30pm - 21-25 kts 25.7°c 1015.5 hPa n/a n/a
28/09:00pm - 22-25 kts 25.7°c 1015.4 hPa n/a n/a
28/08:30pm - 22-25 kts 25.8°c 1015.3 hPa n/a n/a
28/08:00pm - 22-27 kts 25.8°c 1015.3 hPa n/a n/a
28/07:30pm - 23-27 kts 25.9°c 1015.2 hPa n/a n/a
28/07:00pm - 22-25 kts 25.7°c 1014.9 hPa n/a n/a
28/06:30pm - 22-25 kts 25.7°c 1014.6 hPa n/a n/a
28/06:00pm - 22-25 kts 25.2°c 1014.3 hPa n/a n/a
28/05:31pm - 21-32 kts 25.1°c 1014.0 hPa n/a n/a
28/05:30pm - 20-24 kts 25.7°c 1014.0 hPa n/a n/a
28/05:00pm - 24-29 kts 24.5°c 1014.0 hPa n/a n/a
28/04:45pm - 20-30 kts 25.6°c 1013.8 hPa n/a n/a
28/04:30pm - 15-18 kts 25.2°c 1013.8 hPa n/a n/a
28/04:00pm - 26-31 kts 24.2°c 1013.9 hPa n/a n/a
28/03:30pm - 20-23 kts 25.4°c 1013.8 hPa n/a n/a
28/03:00pm - 21-24 kts 25.9°c 1013.9 hPa n/a n/a
28/02:30pm - 19-23 kts 25.9°c 1013.9 hPa n/a n/a
28/02:00pm - 16-19 kts 26.2°c 1014.1 hPa n/a n/a
28/01:30pm - 17-21 kts 26.4°c 1014.4 hPa n/a n/a
28/01:00pm - 18-21 kts 26.6°c 1014.6 hPa n/a n/a
28/12:30pm - 18-22 kts 26.4°c 1014.8 hPa n/a n/a
28/12:00pm - 19-22 kts 26.4°c 1015.2 hPa n/a n/a
28/11:30am - 18-21 kts 26.2°c 1015.4 hPa n/a n/a
28/11:00am - 18-21 kts 26.3°c 1015.5 hPa n/a n/a
28/10:30am - 18-21 kts 26.1°c 1015.9 hPa n/a n/a
28/10:00am - 19-22 kts 26.0°c 1016.0 hPa n/a n/a
28/09:30am - 20-23 kts 26.1°c 1016.0 hPa n/a n/a
28/09:00am - 21-25 kts 26.3°c 1015.8 hPa n/a n/a
28/08:30am - 21-26 kts 25.9°c 1015.7 hPa n/a n/a
28/08:00am - 22-25 kts 25.9°c 1015.5 hPa n/a n/a
28/07:30am - 23-26 kts 25.6°c 1015.2 hPa n/a n/a
28/07:00am - 22-26 kts 25.4°c 1015.0 hPa n/a n/a
28/06:30am - 22-27 kts 25.4°c 1014.8 hPa n/a n/a
28/06:00am - 22-27 kts 25.4°c 1014.7 hPa n/a n/a
28/05:30am - 21-25 kts 25.2°c 1014.7 hPa n/a n/a
28/05:00am - 24-27 kts 25.7°c 1014.3 hPa n/a n/a
28/04:30am - 24-28 kts 25.4°c 1013.9 hPa n/a n/a
28/04:00am - 25-30 kts 24.9°c 1014.0 hPa n/a n/a
28/03:30am - 23-27 kts 25.6°c 1014.1 hPa n/a n/a
28/03:00am - 23-27 kts 25.2°c 1014.2 hPa n/a n/a
28/02:30am - 21-26 kts 24.3°c 1014.4 hPa n/a n/a
28/02:00am - 17-22 kts 25.4°c 1014.6 hPa n/a n/a
28/01:30am - 20-24 kts 23.7°c 1015.0 hPa n/a n/a
28/01:00am - 18-21 kts 23.4°c 1015.3 hPa n/a n/a
28/12:30am - 21-25 kts 23.6°c 1015.7 hPa n/a n/a
28/12:00am - 24-30 kts 24.8°c 1015.6 hPa n/a n/a